This demonstration page uses our WeatherBlox Daily Observations layout. Learn more.

Left ArrowRight Arrow

Hourly Observations for November 23, 2022

Temp ( °F °C ) Dew Point ( °F °C ) Humidity (%) Winds ( mph kmh ) Pressure ( in mb ) Visibility ( mi km ) Precip ( " mm )
12:15 am 00:15 Clear 34 1 27 -3 75 75 Calm 30.26 1025 10 16 0.00 0.00
12:35 am 00:35 Clear 34 1 27 -3 75 75 Calm 30.25 1024 10 16 0.00 0.00
12:55 am 00:55 Clear 32 0 27 -3 80 80 WNW 5 7 30.25 1024 10 16 0.00 0.00
1:15 am 01:15 Clear 32 0 27 -3 80 80 WNW 3 6 30.25 1024 10 16 0.00 0.00
1:35 am 01:35 Clear 32 0 27 -3 80 80 Calm 30.26 1025 10 16 0.00 0.00
1:55 am 01:55 Clear 32 0 27 -3 80 80 Calm 30.26 1025 10 16 0.00 0.00
2:15 am 02:15 Clear 32 0 27 -3 80 80 Calm 30.26 1025 10 16 0.00 0.00
2:35 am 02:35 Clear 32 0 27 -3 80 80 Calm 30.27 1025 10 16 0.00 0.00
2:55 am 02:55 Clear 32 0 27 -3 80 80 Calm 30.27 1025 10 16 0.00 0.00
3:15 am 03:15 Clear 32 0 27 -3 80 80 Calm 30.27 1025 10 16 0.00 0.00
3:35 am 03:35 Clear 30 -1 27 -3 86 86 Calm 30.27 1025 10 16 0.00 0.00
3:55 am 03:55 Clear 32 0 27 -3 80 80 Calm 30.27 1025 10 16 0.00 0.00
4:15 am 04:15 Clear 30 -1 27 -3 86 86 WSW 3 6 30.27 1025 10 16 0.00 0.00
4:35 am 04:35 Clear 30 -1 27 -3 86 86 W 3 6 30.27 1025 10 16 0.00 0.00
4:55 am 04:55 Clear 30 -1 27 -3 86 86 Calm 30.27 1025 10 16 0.00 0.00
5:15 am 05:15 Clear 28 -2 27 -3 93 93 SW 5 7 30.28 1025 10 16 0.00 0.00
5:35 am 05:35 Clear 30 -1 27 -3 86 86 WSW 6 9 30.28 1026 10 16 0.00 0.00
5:55 am 05:55 Clear 30 -1 27 -3 86 86 WSW 5 7 30.28 1026 10 16 0.00 0.00
6:15 am 06:15 Clear 32 0 25 -4 74 74 Calm 30.28 1025 10 16 0.00 0.00
6:35 am 06:35 Clear 28 -2 25 -4 86 86 W 5 7 30.29 1026 10 16 0.00 0.00
6:55 am 06:55 Clear 30 -1 27 -3 86 86 WSW 3 6 30.29 1026 10 16 0.00 0.00
7:15 am 07:15 Sunny 28 -2 27 -3 93 93 W 5 7 30.31 1026 10 16 0.00 0.00
7:35 am 07:35 Sunny 30 -1 27 -3 86 86 W 6 9 30.30 1026 10 16 0.00 0.00
7:55 am 07:55 Sunny 30 -1 27 -3 86 86 W 5 7 30.30 1026 10 16 0.00 0.00
8:15 am 08:15 Sunny 36 2 28 -2 75 75 Calm 30.31 1026 10 16 0.00 0.00
8:35 am 08:35 Sunny 37 3 28 -2 70 70 Calm 30.31 1026 10 16 0.00 0.00
8:55 am 08:55 Sunny 41 5 30 -1 65 65 Calm 30.32 1027 10 16 0.00 0.00
9:15 am 09:15 Sunny 45 7 30 -1 57 57 Calm 30.31 1026 10 16 0.00 0.00
9:35 am 09:35 Sunny 50 10 28 -2 43 43 Calm 30.32 1027 10 16 0.00 0.00
9:55 am 09:55 Sunny 52 11 28 -2 40 40 W 5 7 30.31 1027 10 16 0.00 0.00
10:15 am 10:15 Sunny 54 12 28 -2 38 38 WNW 8 13 30.31 1027 10 16 0.00 0.00
10:35 am 10:35 Sunny 55 13 28 -2 35 35 WNW 12 19 30.30 1026 10 16 0.00 0.00
10:55 am 10:55 Sunny 55 13 30 -1 38 38 WNW 15 24 30.30 1026 10 16 0.00 0.00
11:15 am 11:15 Sunny 57 14 30 -1 36 36 NW 14 22 30.30 1026 10 16 0.00 0.00
11:35 am 11:35 Sunny 57 14 30 -1 36 36 WNW 10 17 30.29 1026 10 16 0.00 0.00
11:55 am 11:55 Sunny 59 15 30 -1 33 33 NW 7 11 30.29 1026 10 16 0.00 0.00
12:15 pm 12:15 Sunny 59 15 30 -1 33 33 NW 8 13 30.28 1025 10 16 0.00 0.00
12:35 pm 12:35 Sunny 59 15 30 -1 33 33 NW 9 15 30.28 1025 10 16 0.00 0.00
12:55 pm 12:55 Sunny 59 15 30 -1 33 33 NNW 6 9 30.27 1025 10 16 0.00 0.00
1:15 pm 13:15 Sunny 61 16 32 0 34 34 W 6 9 30.26 1025 10 16 0.00 0.00
1:35 pm 13:35 Sunny 59 15 30 -1 33 33 WNW 8 13 30.26 1025 10 16 0.00 0.00
1:55 pm 13:55 Sunny 61 16 32 0 34 34 W 5 7 30.25 1024 10 16 0.00 0.00
2:15 pm 14:15 Sunny 61 16 32 0 34 34 W 6 9 30.25 1024 10 16 0.00 0.00
2:35 pm 14:35 Sunny 61 16 32 0 34 34 NNW 8 13 30.24 1024 10 16 0.00 0.00
2:55 pm 14:55 Sunny 61 16 32 0 34 34 WNW 7 11 30.24 1024 10 16 0.00 0.00
3:15 pm 15:15 Sunny 61 16 30 -1 31 31 WNW 7 11 30.24 1024 10 16 0.00 0.00
3:35 pm 15:35 Sunny 59 15 30 -1 33 33 NNW 6 9 30.25 1024 10 16 0.00 0.00
3:55 pm 15:55 Sunny 59 15 32 0 36 36 NW 6 9 30.26 1025 10 16 0.00 0.00
4:15 pm 16:15 Sunny 59 15 30 -1 33 33 NNW 3 6 30.26 1025 10 16 0.00 0.00
4:35 pm 16:35 Sunny 57 14 30 -1 36 36 NNW 3 6 30.26 1025 10 16 0.00 0.00
4:55 pm 16:55 Clear 55 13 30 -1 38 38 Calm 30.27 1025 10 16 0.00 0.00
5:15 pm 17:15 Clear 52 11 30 -1 43 43 Calm 30.27 1025 10 16 0.00 0.00
5:35 pm 17:35 Clear 50 10 30 -1 46 46 Calm 30.28 1025 10 16 0.00 0.00
5:55 pm 17:55 Clear 50 10 30 -1 46 46 Calm 30.29 1026 10 16 0.00 0.00
6:15 pm 18:15 Clear 46 8 32 0 57 57 Calm 30.29 1026 10 16 0.00 0.00
6:35 pm 18:35 Clear 46 8 32 0 57 57 Calm 30.30 1026 10 16 0.00 0.00
6:55 pm 18:55 Clear 45 7 32 0 61 61 Calm 30.30 1026 10 16 0.00 0.00
7:15 pm 19:15 Clear 41 5 32 0 70 70 Calm 30.32 1027 10 16 0.00 0.00
7:35 pm 19:35 Clear 41 5 32 0 70 70 Calm 30.32 1027 10 16 0.00 0.00
7:55 pm 19:55 Clear 41 5 32 0 70 70 Calm 30.32 1027 10 16 0.00 0.00
8:15 pm 20:15 Clear 41 5 32 0 70 70 Calm 30.32 1027 10 16 0.00 0.00
8:35 pm 20:35 Clear 37 3 32 0 81 81 Calm 30.34 1027 10 16 0.00 0.00
8:55 pm 20:55 Clear 37 3 32 0 81 81 Calm 30.34 1027 10 16 0.00 0.00
9:15 pm 21:15 Clear 37 3 32 0 81 81 Calm 30.35 1028 10 16 0.00 0.00
9:35 pm 21:35 Clear 37 3 30 -1 75 75 W 3 6 30.35 1028 10 16 0.00 0.00
9:55 pm 21:55 Clear 37 3 30 -1 75 75 W 3 6 30.35 1028 10 16 0.00 0.00
10:15 pm 22:15 Clear 36 2 30 -1 80 80 Calm 30.35 1028 10 16 0.00 0.00
10:35 pm 22:35 Clear 34 1 30 -1 86 86 Calm 30.35 1028 10 16 0.00 0.00
10:55 pm 22:55 Clear 36 2 30 -1 80 80 Calm 30.35 1028 10 16 0.00 0.00
11:15 pm 23:15 Clear 34 1 30 -1 86 86 Calm 30.35 1028 10 16 0.00 0.00
11:35 pm 23:35 Clear 34 1 30 -1 86 86 Calm 30.37 1029 10 16 0.00 0.00
11:55 pm 23:55 Clear 34 1 30 -1 86 86 Calm 30.36 1028 10 16 0.00 0.00

Powered by AerisWeather